Regional Weather Roundup
Issued by NWS

Home | Current Version | Previous Version | Text Only | Print | Product List | Glossary On
Versions: 1 2 3 4 5 6 7 8 9 10 11 12 13 14 15 16 17 18 19 20 21 22 23 24 25 26 27 28 29 30 31 32 33 34 35 36 37 38 39 40 41 42 43 44 45 46 47 48 49 50
000
ASUS45 KBOU 030507
RWRCO

WEATHER ROUNDUP FOR COLORADO
NATIONAL WEATHER SERVICE DENVER/BOULDER CO
1100 PM MDT WED SEP 02 2015

NOTE: "FAIR" INDICATES FEW OR NO CLOUDS BELOW 12000 FEET WITH NO
SIGNIFICANT WEATHER AND/OR OBSTRUCTIONS TO VISIBILITY.

COZ001>005-013-030-031-030600-
...NORTHWEST COLORADO...

CITY           SKY/WX    TMP DP  RH WIND       PRES   REMARKS
CRAIG          MOCLDY    53  48  83 CALM      30.13F
HAYDEN         NOT AVBL
MEEKER         PTCLDY    60  49  66 N7        30.15S
MOUNT WERNER   NOT AVBL
STEAMBOAT SPGS MOCLDY    56  45  66 CALM      30.19S
WALDEN         PTCLDY    50  41  71 SE8       30.27F
$$

COZ006>008-011-030600-
...WEST CENTRAL VALLEYS...

CITY           SKY/WX    TMP DP  RH WIND       PRES   REMARKS
GRAND JUNCTION PTCLDY    73  51  46 E9        30.03F
MONTROSE       PTCLDY    68  49  50 SE9       30.15S
EAGLE          MOCLDY    64  46  52 E3        30.21S
RIFLE          PTCLDY    63  53  70 S5        30.10S
DELTA          PTCLDY    72  49  43 NE9       30.09S
NUCLA          PTCLDY    72  39  30 E6        30.17F
$$

COZ017>023-064>068-030600-
...SOUTHWEST COLORADO...

CITY           SKY/WX    TMP DP  RH WIND       PRES   REMARKS
DURANGO        MOCLDY    64  47  53 SW7       30.26R
CORTEZ         CLOUDY    66  54  65 CALM      30.19S THUNDER
PAGOSA SPRINGS CLOUDY    63  43  49 E3        30.35R
TELLURIDE      MOCLDY    56  48  74 SE5       30.41S
WOLF CREEK PAS NOT AVBL
$$

COZ009-010-012-014-032>034-037-058>063-030600-
...CENTRAL COLORADO...

CITY           SKY/WX    TMP DP  RH WIND       PRES   REMARKS
ASPEN          MOCLDY    58  44  60 SW6       30.27S
BUENA VISTA    PTCLDY    56  38  50 CALM      30.30S
COPPER MTN     PTCLDY    54  36  50 S12       30.59S
BERTHOUD PASS  FAIR      45  32  61 NW10      30.63F
COTTONWOOD PAS PTCLDY    59  36  41 W6        30.43S
GUNNISON       MOCLDY    55  48  76 N3        30.34F
KREMMLING      MOCLDY    55  45  67 CALM      30.25S
LEADVILLE      MOCLDY    44  42  93 NE3       30.43S
MONARCH PASS   CLOUDY    45  34  65 SW16      30.69F
SALIDA         PTCLDY    65  39  39 CALM      30.34S
SUNLIGHT       MOCLDY    48  43  81 CALM      30.51F
WILKERSON PASS MOCLDY    52  34  50 W6        30.55F
$$

COZ069>075-030600-
...SAN LUIS VALLEY/SANGRE DE CRISTO MOUNTAINS...

CITY           SKY/WX    TMP DP  RH WIND       PRES   REMARKS
ALAMOSA        CLOUDY    56  51  84 SW9       30.33F
LA VETA PASS   MOCLDY    46  43  87 MISG      30.46F
SAGUACHE       PTCLDY    54  43  66 N8        30.34S
$$

COZ035-036-038>040-030600-
...NORTHERN COLORADO FRONT RANGE...

CITY           SKY/WX    TMP DP  RH WIND       PRES   REMARKS
DENVER INTL AP MOCLDY    78  39  24 S14       30.04F
DMNS CITY PARK   N/A     69  48  47 SE8       30.03S
AURORA         PTCLDY    70  42  36 S9        30.06F
FRONT RANGE AP NOT AVBL
ERIE MUNI ARPT PTCLDY    65  47  51 S5        30.02S
BOULDER MUN AP PTCLDY    77  37  24 SW7       30.02F
CENTENNIAL     MOCLDY    71  42  35 S8        30.08F
BROOMFIELD     NOT AVBL
FORT COLLINS   PTCLDY    70  48  46 N7        30.01F
LONGMONT       PTCLDY    68  49  50 CALM      30.03S
$$

COZ041-046-047-076>085-087-088-030600-
...PIKES PEAK/PALMER DIVIDE AND SOUTHERN FOOTHILLS...

CITY           SKY/WX    TMP DP  RH WIND       PRES   REMARKS
COLO. SPRINGS  MOCLDY    71  43  36 CALM      30.13F
A. F. ACADEMY  MOCLDY    62  46  55 N3        30.15F
ELLICOTT       MOCLDY   N/A N/A N/A CALM      30.11F
FALCON         MOCLDY    68  39  34 MISG      30.19F
FORT CARSON    CLOUDY    72  43  34 CALM      30.09F
LIMON          PTCLDY    57  48  72 N6        30.05F
MONUMENT HILL  CLOUDY    61  41  48 S7        30.19F
TRINIDAD       CLOUDY    72  47  40 S6        30.10F
$$

COZ042>045-048>051-090-091-030600-
...NORTHEAST COLORADO...

CITY           SKY/WX    TMP DP  RH WIND       PRES   REMARKS
GREELEY ARPT   PTCLDY    64  52  63 N5        29.99F
AKRON          PTCLDY    73  41  31 S6        29.99S
BURLINGTON     MOCLDY    65  50  58 SW6       29.96S
WRAY           CLOUDY    67  51  56 SW6       29.91S
STERLING       PTCLDY    63  50  63 W6        29.93S
HOLYOKE        PTCLDY    70  59  68 CALM      29.92S
FORT MORGAN    PTCLDY    67  41  39 CALM      29.98S
$$

COZ086-089-092>099-030600-
...SOUTHEAST COLORADO...

CITY           SKY/WX    TMP DP  RH WIND       PRES   REMARKS
PUEBLO         CLOUDY    75  48  38 N3        29.99F
LA JUNTA       MOCLDY    79  45  29 SW13      29.97S
LAMAR          PTCLDY    78  54  43 SW13      29.91R
SPRINGFIELD      N/A     76  52  43 S12       30.00S
$$



USA.gov is the U.S. government's official web portal to all federal, state and local government web resources and services.